GW0425 Weather Reports


time (UTC)temp
F
wind
direction
speed
knots
gust
knots
rain 1hr
in
rain 24hr
in
rain mn
in
humidity
%
barometer
mb
20260504214537 58 326 9.6 13.0 0.02 0.26 0.26 87 1012.7
20260504213036 58 319 8.7 12.2 0.04 0.26 0.26 88 1012.9
20260504211535 57 328 6.1 9.6 0.05 0.26 0.26 89 1012.9
20260504210054 57 319 7.8 12.2 0.04 0.25 0.25 90 1013.0
20260504204553 56 321 9.6 14.8 0.03 0.24 0.24 88 1012.9
20260504203041 58 312 10.4 15.6 0.00 0.22 0.22 88 1013.0
20260504201536 58 332 11.3 16.5 0.00 0.21 0.21 82 1012.8
20260504200036 59 307 8.7 14.8 0.00 0.21 0.21 85 1012.5
20260504194542 59 290 6.1 14.8 0.00 0.21 0.21 85 1012.4
20260504193040 59 319 7.8 13.9 0.00 0.21 0.21 84 1012.3
20260504191539 60 337 6.1 13.0 0.00 0.21 0.21 84 1012.2
20260504190037 60 313 8.7 13.0 0.00 0.21 0.21 84 1012.1
20260504184536 60 303 6.1 13.0 0.00 0.21 0.21 84 1012.0
20260504183041 59 305 8.7 13.9 0.00 0.21 0.21 83 1011.9
20260504181538 60 293 7.0 13.9 0.00 0.21 0.21 84 1012.0
20260504180039 60 293 7.0 12.2 0.00 0.21 0.21 83 1011.9
20260504174538 60 302 7.8 13.0 0.00 0.21 0.21 84 1011.8
20260504173051 60 302 8.7 12.2 0.00 0.21 0.21 82 1011.8
20260504171542 60 324 7.0 11.3 0.00 0.21 0.21 80 1011.8
20260504081541 55 45 2.6 6.1 0.08 0.16 0.14 95 1012.3
20260504044536 56 23 2.6 6.1 0.00 0.03 0.00 90 1011.2
20260504043035 57 24 5.2 8.7 0.00 0.03 0.00 90 1011.2
20260504041544 57 355 5.2 8.7 0.00 0.03 0.00 90 1011.3
20260504040042 57 19 1.7 6.1 0.00 0.03 0.00 91 1011.5
20260504034545 56 19 3.5 6.1 0.00 0.03 0.00 91 1011.4
20260504033036 56 297 0.0 2.6 0.00 0.03 0.00 92 1011.8
20260504031536 55 15 0.0 2.6 0.00 0.03 0.00 91 1011.6
20260504030037 56 0 0.0 3.5 0.00 0.03 0.00 91 1011.6
20260504024542 56 26 0.0 2.6 0.00 0.03 0.00 91 1011.6
20260504023039 56 66 1.7 4.3 0.00 0.03 0.00 92 1011.6
20260504021540 56 68 0.0 2.6 0.00 0.03 0.00 92 1011.7
20260504020041 56 44 0.9 3.5 0.00 0.03 0.00 93 1011.6
20260504014538 56 0 0.0 3.5 0.00 0.03 0.00 93 1011.8
20260504013055 55 35 0.0 1.7 0.00 0.03 0.00 93 1011.9
20260504011542 55 0 0.0 0.9 0.00 0.03 0.00 93 1012.0
20260504010042 56 42 0.0 0.9 0.00 0.03 0.00 92 1012.0
20260504004538 56 0 0.0 1.7 0.00 0.03 0.00 92 1012.1
20260504003035 56 63 0.9 1.7 0.00 0.03 0.00 92 1012.1
20260504001538 56 19 0.9 2.6 0.00 0.03 0.00 92 1012.1
20260504000035 57 62 0.9 3.5 0.00 0.03 0.00 92 1012.3
20260503234540 57 47 0.9 4.3 0.00 0.05 0.00 91 1012.3
20260503233037 58 53 0.0 1.7 0.00 0.05 0.00 91 1012.5
20260503231536 58 37 0.0 0.9 0.00 0.05 0.00 90 1012.5
20260503230041 59 38 0.9 5.2 0.00 0.05 0.00 89 1012.4
20260503224533 59 325 3.5 6.1 0.00 0.06 0.00 90 1012.5
20260503223041 59 309 2.6 6.1 0.00 0.06 0.00 90 1012.7
20260503221541 59 315 3.5 7.8 0.00 0.06 0.00 89 1012.5
20260503220039 59 336 4.3 7.8 0.00 0.06 0.00 88 1012.6